Time,TemperatureF,DewpointF,PressureIn,WindDirection,WindDirectionDegrees,WindSpeedMPH,WindSpeedGustMPH,Humidity,HourlyPrecipIn,Conditions,Clouds,dailyrainin,SoftwareType,DateUTC
2013-05-26 00:01:00,53.0,48.0,29.93,West,270,0.0,0.0,83,0.00,,,0.02,,2013-05-26 07:01:00,
2013-05-26 00:11:00,53.0,48.0,29.93,West,270,0.0,0.0,83,0.00,,,0.02,,2013-05-26 07:11:00,
2013-05-26 00:21:00,53.0,48.0,29.93,West,270,0.0,0.0,83,0.00,,,0.02,,2013-05-26 07:21:00,
2013-05-26 00:31:00,53.0,48.0,29.93,West,270,0.0,0.0,83,0.00,,,0.02,,2013-05-26 07:31:00,
2013-05-26 00:42:00,53.0,48.0,29.93,West,270,0.0,0.0,83,0.00,,,0.02,,2013-05-26 07:42:00,
2013-05-26 01:21:00,53.0,48.0,29.92,West,270,0.0,0.0,84,0.00,,,0.02,,2013-05-26 08:21:00,
2013-05-26 01:32:00,53.0,49.0,29.91,West,270,0.0,1.0,85,0.00,,,0.02,,2013-05-26 08:32:00,
2013-05-26 01:42:00,53.0,49.0,29.91,West,270,0.0,1.0,85,0.00,,,0.02,,2013-05-26 08:42:00,
2013-05-26 01:53:00,53.0,49.0,29.91,West,270,0.0,0.0,85,0.00,,,0.02,,2013-05-26 08:53:00,
2013-05-26 02:01:00,52.0,48.0,29.91,West,270,0.0,0.0,85,0.00,,,0.02,,2013-05-26 09:01:00,
2013-05-26 02:11:00,52.0,48.0,29.91,West,270,0.0,0.0,85,0.00,,,0.02,,2013-05-26 09:11:00,
2013-05-26 02:21:00,52.0,48.0,29.91,West,270,0.0,0.0,85,0.00,,,0.02,,2013-05-26 09:21:00,
2013-05-26 02:33:00,52.0,43.0,29.91,West,270,0.0,0.0,71,0.00,,,0.02,,2013-05-26 09:33:00,
2013-05-26 02:42:00,52.0,43.0,29.91,West,270,0.0,0.0,71,0.00,,,0.02,,2013-05-26 09:42:00,
2013-05-26 02:53:00,51.0,47.0,29.91,West,270,0.0,0.0,86,0.00,,,0.02,,2013-05-26 09:53:00,
2013-05-26 03:02:00,51.0,47.0,29.91,West,270,0.0,0.0,86,0.00,,,0.02,,2013-05-26 10:02:00,
2013-05-26 03:11:00,51.0,47.0,29.91,West,270,0.0,0.0,86,0.00,,,0.02,,2013-05-26 10:11:00,
2013-05-26 03:22:00,51.0,47.0,29.91,West,270,0.0,0.0,86,0.00,,,0.02,,2013-05-26 10:22:00,
2013-05-26 03:33:00,51.0,47.0,29.91,West,270,0.0,0.0,86,0.00,,,0.02,,2013-05-26 10:33:00,
2013-05-26 03:42:00,51.0,47.0,29.90,West,270,0.0,0.0,87,0.00,,,0.00,,2013-05-26 10:42:00,
2013-05-26 03:52:00,51.0,47.0,29.90,West,270,0.0,0.0,87,0.00,,,0.00,,2013-05-26 10:52:00,
2013-05-26 04:02:00,51.0,47.0,29.90,West,270,0.0,0.0,87,0.00,,,0.00,,2013-05-26 11:02:00,
2013-05-26 04:11:00,51.0,47.0,29.90,West,270,0.0,0.0,87,0.00,,,0.00,,2013-05-26 11:11:00,
2013-05-26 04:22:00,51.0,47.0,29.91,West,270,0.0,0.0,87,0.00,,,0.00,,2013-05-26 11:22:00,
2013-05-26 04:32:00,51.0,47.0,29.90,West,270,0.0,0.0,87,0.00,,,0.00,,2013-05-26 11:32:00,
2013-05-26 04:42:00,51.0,47.0,29.90,West,270,0.0,0.0,87,0.00,,,0.00,,2013-05-26 11:42:00,
2013-05-26 04:52:00,51.0,47.0,29.90,West,270,0.0,0.0,87,0.00,,,0.00,,2013-05-26 11:52:00,
2013-05-26 05:01:00,51.0,47.0,29.90,West,270,0.0,0.0,87,0.00,,,0.00,,2013-05-26 12:01:00,
2013-05-26 05:11:00,51.0,47.0,29.90,West,270,0.0,0.0,87,0.00,,,0.00,,2013-05-26 12:11:00,
2013-05-26 05:21:00,51.0,48.0,29.91,West,270,0.0,0.0,88,0.00,,,0.00,,2013-05-26 12:21:00,
2013-05-26 05:32:00,51.0,48.0,29.91,West,270,0.0,0.0,88,0.00,,,0.00,,2013-05-26 12:32:00,
2013-05-26 05:42:00,51.0,48.0,29.91,West,270,0.0,0.0,88,0.00,,,0.00,,2013-05-26 12:42:00,
2013-05-26 05:52:00,51.0,48.0,29.91,West,270,0.0,0.0,88,0.00,,,0.00,,2013-05-26 12:52:00,
2013-05-26 06:01:00,51.0,48.0,29.91,West,270,0.0,0.0,88,0.00,,,0.00,,2013-05-26 13:01:00,
2013-05-26 06:11:00,51.0,48.0,29.91,West,270,0.0,0.0,88,0.00,,,0.00,,2013-05-26 13:11:00,
2013-05-26 06:21:00,51.0,48.0,29.91,West,270,0.0,0.0,88,0.00,,,0.00,,2013-05-26 13:21:00,
2013-05-26 06:32:00,51.0,48.0,29.91,West,270,0.0,0.0,88,0.02,,,0.02,,2013-05-26 13:32:00,
2013-05-26 06:42:00,51.0,48.0,29.92,West,270,0.0,0.0,88,0.02,,,0.02,,2013-05-26 13:42:00,
2013-05-26 06:52:00,51.0,48.0,29.92,West,270,0.0,0.0,88,0.02,,,0.02,,2013-05-26 13:52:00,
2013-05-26 07:01:00,51.0,48.0,29.92,West,270,0.0,0.0,88,0.02,,,0.02,,2013-05-26 14:01:00,
2013-05-26 07:11:00,51.0,48.0,29.92,West,270,0.0,0.0,88,0.02,,,0.02,,2013-05-26 14:11:00,
2013-05-26 07:21:00,51.0,48.0,29.92,West,270,0.0,0.0,89,0.02,,,0.02,,2013-05-26 14:21:00,
2013-05-26 07:32:00,52.0,49.0,29.91,West,270,0.0,0.0,90,0.02,,,0.04,,2013-05-26 14:32:00,
2013-05-26 07:42:00,52.0,49.0,29.91,West,270,0.0,0.0,90,0.02,,,0.04,,2013-05-26 14:42:00,
2013-05-26 07:52:00,52.0,49.0,29.91,West,270,0.0,0.0,90,0.02,,,0.04,,2013-05-26 14:52:00,
2013-05-26 08:01:00,52.0,49.0,29.91,West,270,0.0,0.0,90,0.02,,,0.04,,2013-05-26 15:01:00,
2013-05-26 08:11:00,52.0,49.0,29.91,West,270,0.0,0.0,90,0.02,,,0.04,,2013-05-26 15:11:00,
2013-05-26 08:22:00,52.0,49.0,29.91,West,270,0.0,0.0,90,0.02,,,0.04,,2013-05-26 15:22:00,
2013-05-26 08:33:00,53.0,50.0,29.91,West,270,0.0,0.0,90,0.00,,,0.04,,2013-05-26 15:33:00,
2013-05-26 08:43:00,53.0,50.0,29.92,West,270,0.0,0.0,90,0.00,,,0.04,,2013-05-26 15:43:00,
2013-05-26 08:53:00,53.0,50.0,29.92,West,270,0.0,0.0,90,0.00,,,0.04,,2013-05-26 15:53:00,
2013-05-26 09:03:00,53.0,50.0,29.92,West,270,0.0,0.0,90,0.00,,,0.04,,2013-05-26 16:03:00,
2013-05-26 09:12:00,53.0,50.0,29.93,West,270,1.0,1.0,89,0.00,,,0.04,,2013-05-26 16:12:00,
2013-05-26 09:23:00,53.0,50.0,29.93,West,270,1.0,1.0,89,0.00,,,0.04,,2013-05-26 16:23:00,
2013-05-26 09:33:00,53.0,50.0,29.94,West,270,0.0,0.0,89,0.02,,,0.06,,2013-05-26 16:33:00,
2013-05-26 09:42:00,53.0,50.0,29.93,West,270,0.0,0.0,89,0.02,,,0.06,,2013-05-26 16:42:00,
2013-05-26 09:52:00,53.0,50.0,29.93,West,270,0.0,0.0,89,0.02,,,0.06,,2013-05-26 16:52:00,
2013-05-26 10:02:00,53.0,50.0,29.93,West,270,0.0,0.0,89,0.02,,,0.06,,2013-05-26 17:02:00,
2013-05-26 10:11:00,53.0,50.0,29.93,West,270,0.0,0.0,89,0.02,,,0.06,,2013-05-26 17:11:00,
2013-05-26 10:22:00,53.0,50.0,29.93,West,270,0.0,0.0,89,0.02,,,0.06,,2013-05-26 17:22:00,
2013-05-26 10:42:00,54.0,51.0,29.93,NNE,22,0.0,0.0,89,0.00,,,0.06,,2013-05-26 17:42:00,
2013-05-26 10:52:00,54.0,51.0,29.93,NNE,22,0.0,0.0,89,0.00,,,0.06,,2013-05-26 17:52:00,
2013-05-26 11:01:00,54.0,51.0,29.93,NNE,22,0.0,0.0,89,0.00,,,0.06,,2013-05-26 18:01:00,
2013-05-26 11:12:00,54.0,51.0,29.93,NNE,22,0.0,0.0,89,0.00,,,0.06,,2013-05-26 18:12:00,
2013-05-26 11:21:00,55.0,52.0,29.93,NNW,338,1.0,1.0,90,0.00,,,0.06,,2013-05-26 18:21:00,
2013-05-26 11:31:00,55.0,52.0,29.93,NNW,338,0.0,0.0,89,0.00,,,0.06,,2013-05-26 18:31:00,
2013-05-26 11:41:00,56.0,53.0,29.93,ENE,68,0.0,0.0,89,0.00,,,0.06,,2013-05-26 18:41:00,
2013-05-26 11:52:00,56.0,53.0,29.93,ENE,68,0.0,0.0,89,0.00,,,0.06,,2013-05-26 18:52:00,
2013-05-26 12:01:00,56.0,53.0,29.93,ENE,68,0.0,0.0,89,0.00,,,0.06,,2013-05-26 19:01:00,
2013-05-26 12:11:00,56.0,53.0,29.93,ENE,68,0.0,0.0,89,0.00,,,0.06,,2013-05-26 19:11:00,
2013-05-26 12:21:00,57.0,53.0,29.93,NNE,22,0.0,1.0,87,0.00,,,0.06,,2013-05-26 19:21:00,
2013-05-26 12:32:00,57.0,53.0,29.93,NNE,22,0.0,1.0,87,0.00,,,0.06,,2013-05-26 19:32:00,
2013-05-26 12:42:00,59.0,54.0,29.93,NNE,22,1.0,1.0,85,0.00,,,0.06,,2013-05-26 19:42:00,
2013-05-26 12:52:00,59.0,54.0,29.93,NNE,22,1.0,1.0,85,0.00,,,0.06,,2013-05-26 19:52:00,
2013-05-26 13:01:00,60.0,55.0,29.93,NNW,338,0.0,0.0,84,0.00,,,0.06,,2013-05-26 20:01:00,
2013-05-26 13:11:00,60.0,55.0,29.93,NNW,338,0.0,0.0,84,0.00,,,0.06,,2013-05-26 20:11:00,
2013-05-26 13:21:00,61.0,56.0,29.93,SSE,158,0.0,0.0,83,0.00,,,0.06,,2013-05-26 20:21:00,
2013-05-26 13:32:00,61.0,56.0,29.93,SSE,158,0.0,0.0,83,0.00,,,0.06,,2013-05-26 20:32:00,
2013-05-26 13:41:00,61.0,56.0,29.93,SSE,158,0.0,0.0,83,0.00,,,0.06,,2013-05-26 20:41:00,
2013-05-26 13:52:00,61.0,56.0,29.93,SSE,158,0.0,0.0,83,0.00,,,0.06,,2013-05-26 20:52:00,
2013-05-26 14:01:00,60.0,54.0,29.93,South,180,0.0,0.0,82,0.00,,,0.06,,2013-05-26 21:01:00,
2013-05-26 14:11:00,60.0,54.0,29.93,South,180,0.0,0.0,82,0.00,,,0.06,,2013-05-26 21:11:00,
2013-05-26 14:22:00,60.0,54.0,29.93,NE,45,0.0,0.0,81,0.00,,,0.06,,2013-05-26 21:22:00,
2013-05-26 14:33:00,59.0,54.0,29.93,NNW,338,0.0,0.0,82,0.02,,,0.08,,2013-05-26 21:33:00,
2013-05-26 14:43:00,59.0,54.0,29.93,NNW,338,0.0,1.0,83,0.02,,,0.08,,2013-05-26 21:43:00,
2013-05-26 14:53:00,59.0,54.0,29.93,NNW,338,0.0,1.0,83,0.02,,,0.08,,2013-05-26 21:53:00,
2013-05-26 15:00:00,61.0,56.0,29.93,SSW,202,1.0,3.0,83,0.02,,,0.08,,2013-05-26 22:00:00,
2013-05-26 15:02:00,60.0,55.0,29.92,NNW,338,0.0,0.0,83,0.02,,,0.08,,2013-05-26 22:02:00,
2013-05-26 15:12:00,61.0,56.0,29.93,SSW,202,1.0,3.0,83,0.02,,,0.08,,2013-05-26 22:12:00,
2013-05-26 15:22:00,61.0,56.0,29.93,SSW,202,1.0,3.0,83,0.02,,,0.08,,2013-05-26 22:22:00,
2013-05-26 15:32:00,61.0,56.0,29.93,SSW,202,1.0,3.0,83,0.02,,,0.08,,2013-05-26 22:32:00,
2013-05-26 15:42:00,61.0,56.0,29.93,SSW,202,1.0,3.0,83,0.02,,,0.08,,2013-05-26 22:42:00,
2013-05-26 15:53:00,61.0,56.0,29.93,SSW,202,1.0,3.0,83,0.02,,,0.08,,2013-05-26 22:53:00,
2013-05-26 16:10:00,63.0,56.0,29.93,South,180,0.0,0.0,79,0.00,,,0.08,,2013-05-26 23:10:00,
2013-05-26 16:22:00,63.0,56.0,29.93,SE,135,2.0,3.0,79,0.00,,,0.08,,2013-05-26 23:22:00,
2013-05-26 16:32:00,63.0,56.0,29.93,South,180,0.0,0.0,79,0.00,,,0.08,,2013-05-26 23:32:00,
2013-05-26 16:43:00,63.0,56.0,29.93,South,180,0.0,0.0,79,0.00,,,0.08,,2013-05-26 23:43:00,
2013-05-26 16:52:00,63.0,56.0,29.93,South,180,0.0,0.0,79,0.00,,,0.08,,2013-05-26 23:52:00,
2013-05-26 17:01:00,63.0,56.0,29.93,South,180,0.0,0.0,79,0.00,,,0.08,,2013-05-27 00:01:00,
2013-05-26 17:32:00,65.0,56.0,29.92,North,0,0.0,0.0,73,0.00,,,0.08,,2013-05-27 00:32:00,
2013-05-26 17:42:00,65.0,56.0,29.92,West,270,0.0,0.0,74,0.00,,,0.08,,2013-05-27 00:42:00,
2013-05-26 17:52:00,65.0,56.0,29.92,West,270,0.0,0.0,74,0.00,,,0.08,,2013-05-27 00:52:00,
2013-05-26 18:01:00,65.0,56.0,29.91,NNW,338,0.0,2.0,72,0.00,,,0.08,,2013-05-27 01:01:00,
2013-05-26 18:11:00,65.0,56.0,29.91,NNW,338,0.0,2.0,72,0.00,,,0.08,,2013-05-27 01:11:00,
2013-05-26 18:21:00,64.0,56.0,29.91,NNW,338,1.0,2.0,74,0.00,,,0.08,,2013-05-27 01:21:00,
2013-05-26 18:31:00,64.0,56.0,29.91,NNE,22,0.0,0.0,74,0.00,,,0.08,,2013-05-27 01:31:00,
2013-05-26 18:42:00,64.0,56.0,29.91,North,0,0.0,0.0,75,0.00,,,0.08,,2013-05-27 01:42:00,
2013-05-26 18:52:00,64.0,56.0,29.91,North,0,0.0,0.0,75,0.00,,,0.08,,2013-05-27 01:52:00,
2013-05-26 19:01:00,64.0,56.0,29.91,South,180,0.0,0.0,76,0.00,,,0.08,,2013-05-27 02:01:00,
2013-05-26 19:11:00,64.0,56.0,29.91,South,180,0.0,0.0,76,0.00,,,0.08,,2013-05-27 02:11:00,
2013-05-26 19:21:00,64.0,56.0,29.91,South,180,0.0,0.0,76,0.00,,,0.08,,2013-05-27 02:21:00,
2013-05-26 19:31:00,64.0,56.0,29.91,South,180,0.0,0.0,76,0.00,,,0.08,,2013-05-27 02:31:00,
2013-05-26 19:42:00,62.0,55.0,29.91,NNW,338,0.0,0.0,77,0.00,,,0.08,,2013-05-27 02:42:00,
2013-05-26 19:52:00,62.0,55.0,29.91,NNW,338,0.0,0.0,77,0.00,,,0.08,,2013-05-27 02:52:00,
2013-05-26 20:02:00,61.0,54.0,29.91,NNW,338,0.0,0.0,78,0.00,,,0.08,,2013-05-27 03:02:00,
2013-05-26 20:11:00,61.0,54.0,29.91,NNW,338,0.0,0.0,78,0.00,,,0.08,,2013-05-27 03:11:00,
2013-05-26 20:21:00,60.0,53.0,29.91,ESE,112,0.0,1.0,78,0.00,,,0.08,,2013-05-27 03:21:00,
2013-05-26 20:32:00,60.0,53.0,29.91,West,270,0.0,0.0,78,0.00,,,0.08,,2013-05-27 03:32:00,
2013-05-26 20:42:00,59.0,52.0,29.91,WNW,292,0.0,0.0,79,0.00,,,0.08,,2013-05-27 03:42:00,
2013-05-26 20:53:00,59.0,52.0,29.91,WNW,292,0.0,0.0,79,0.00,,,0.08,,2013-05-27 03:53:00,
2013-05-26 21:02:00,58.0,52.0,29.91,WNW,292,0.0,0.0,80,0.00,,,0.08,,2013-05-27 04:02:00,
2013-05-26 21:12:00,58.0,52.0,29.91,WNW,292,0.0,0.0,80,0.00,,,0.08,,2013-05-27 04:12:00,
2013-05-26 21:22:00,58.0,52.0,29.91,WNW,292,0.0,0.0,80,0.00,,,0.08,,2013-05-27 04:22:00,
2013-05-26 21:33:00,58.0,52.0,29.91,WNW,292,0.0,0.0,80,0.00,,,0.08,,2013-05-27 04:33:00,
2013-05-26 21:42:00,57.0,52.0,29.92,WNW,292,0.0,0.0,82,0.00,,,0.08,,2013-05-27 04:42:00,
2013-05-26 21:52:00,57.0,52.0,29.92,WNW,292,0.0,0.0,82,0.00,,,0.08,,2013-05-27 04:52:00,
2013-05-26 22:02:00,57.0,52.0,29.92,WNW,292,0.0,0.0,82,0.00,,,0.08,,2013-05-27 05:02:00,
2013-05-26 22:12:00,57.0,52.0,29.92,WNW,292,0.0,0.0,82,0.00,,,0.08,,2013-05-27 05:12:00,
2013-05-26 22:21:00,57.0,52.0,29.92,NE,45,0.0,0.0,82,0.00,,,0.08,,2013-05-27 05:21:00,
2013-05-26 22:32:00,57.0,51.0,29.92,NNE,22,0.0,0.0,81,0.00,,,0.08,,2013-05-27 05:32:00,
2013-05-26 22:41:00,57.0,51.0,29.92,NNE,22,0.0,0.0,81,0.00,,,0.08,,2013-05-27 05:41:00,
2013-05-26 22:52:00,57.0,52.0,29.92,NE,37,0.0,3.0,82,0.00,,,0.08,,2013-05-27 05:52:00,
2013-05-26 23:01:00,56.0,51.0,29.92,ENE,68,1.0,2.0,82,0.00,,,0.08,,2013-05-27 06:01:00,
2013-05-26 23:11:00,56.0,51.0,29.92,ENE,68,1.0,2.0,82,0.00,,,0.08,,2013-05-27 06:11:00,
2013-05-26 23:21:00,56.0,51.0,29.91,NNW,338,1.0,2.0,82,0.00,,,0.08,,2013-05-27 06:21:00,
2013-05-26 23:31:00,56.0,51.0,29.91,NE,53,0.0,1.0,82,0.00,,,0.08,,2013-05-27 06:31:00,
2013-05-26 23:41:00,56.0,51.0,29.91,NE,53,0.0,1.0,82,0.00,,,0.08,,2013-05-27 06:41:00,
2013-05-26 23:52:00,56.0,51.0,29.91,NE,53,0.0,1.0,82,0.00,,,0.08,,2013-05-27 06:52:00,